Retour au catalogue

ECHOSTAR 18

ActifCommunicationsGEO
NORAD 41592·PAYLOAD·🇺🇸 United States

Lancé Jun 18, 2016 depuis Guiana Space Centre

Loading…

TLE

FraisSource: Space-Track

Époque: Sep 14, 2026, 10:05 UTC

1 41592U 16039B   26257.42042447 -.00000290  00000-0  00000-0 0  9991
2 41592   0.0179 160.8740 0001502   6.3842 276.1354  1.00271536 37516

Suivez ECHOSTAR 18 en temps réel avec AllMySat

Download on the App Store